#timestamp,LO_Frequency,Hit,StdDev 
1671926415.5,286047000.9,N
1671926435.3,286047001.0,N
1671926455.2,286046999.8,N
1671926475.9,286046999.7,N
1671926495.7,286046998.8,N
1671926515.6,286046998.5,N
1671926535.4,286047000.4,N
1671926555.2,286047000.8,N
1671926575.1,286047001.1,N
1671926576.0,286047001.1,N
1671926595.8,286046998.1,N
1671926615.7,286046998.7,N
1671926635.5,286046996.8,N
1671926655.3,286046997.2,N
1671926675.2,286046996.8,N
1671926695.0,286046997.2,N
1671926695.9,286046997.2,N
1671926715.7,286046996.9,N
1671926735.6,286046998.7,N
1671926755.4,286047000.4,N
1671926775.3,286046998.4,N
1671926795.1,286046998.8,N
1671926796.0,286046998.8,N
1671926815.8,286046998.5,N
1671926835.7,286046999.8,N
1671926855.5,286047002.4,N
1671926875.4,286046998.6,N
1671926895.2,286046999.0,N
1671926915.0,286047000.8,N
1671926915.9,286047000.8,N
1671926935.8,286046999.9,N
1671926955.6,286047000.6,N
1671926975.5,286047001.0,N
1671926995.3,286047000.7,N
1671927015.1,286047000.7,N
1671927035.9,286047001.1,N
1671927055.7,286047001.2,N
1671927075.5,286046998.1,N
1671927095.4,286047001.0,N
1671927115.2,286046998.4,N
1671927135.0,286046999.4,N
1671927136.0,286046999.4,N
1671927155.8,286046995.6,N
1671927175.6,286046997.4,N
1671927195.5,286046997.1,N
1671927215.3,286046998.4,N
1671927235.1,286046998.4,N
1671927255.9,286046998.3,N
1671927275.7,286046998.1,N
1671927295.6,286046998.7,N
1671927315.4,286046998.2,N
1671927335.2,286047002.3,N
1671927355.1,286047000.2,N
1671927356.0,286047000.2,N
1671927375.8,286047002.5,N
1671927395.6,286047000.1,N
1671927415.5,286047000.3,N
1671927435.3,286047001.4,N
1671927455.2,286047001.1,N
1671927475.9,286047002.3,N
1671927495.7,286047001.4,N
1671927515.6,286047003.9,N
1671927535.4,286047001.9,N
1671927555.2,286047001.5,N
1671927605.1,286046998.2,E
1671927615.0,286046998.2,N
1671927615.9,286046998.2,P
1671927635.8,286047003.5,P
1671927655.6,286047003.8,N
1671927675.5,286047005.8,N
1671927695.3,286047007.5,N
1671927715.1,286047003.7,N
1671927735.9,286047002.9,N
1671927755.7,286047006.9,N
1671927775.5,286047005.7,N
1671927795.4,286047001.4,N
1671927815.2,286047002.8,N
1671927835.0,286047000.0,N
1671927836.0,286047000.0,N
1671927855.8,286047002.8,N
1671927875.6,286047001.6,N
1671927895.5,286047003.6,N
1671927915.3,286047003.5,N
1671927935.1,286047003.9,N
1671927955.9,286047002.0,N
1671927975.7,286047004.2,N
1671927995.6,286047001.7,N
1671928015.4,286046999.8,N
1671928035.2,286047000.3,N
1671928055.1,286047000.4,N
1671928056.0,286047000.4,N
1671928075.8,286047001.3,N
1671928095.6,286047004.1,N
1671928115.5,286047004.3,N
1671928135.3,286047001.6,N
1671928155.1,286047000.9,N
1671928175.9,286047001.8,N
1671928195.7,286047003.7,N
1671928215.6,286047004.2,N
1671928235.4,286047000.1,N
1671928255.3,286047002.4,N
1671928275.1,286047004.0,N
1671928276.0,286047004.0,N
1671928295.8,286047004.3,N
1671928315.7,286047001.6,N
1671928335.5,286047002.8,N
1671928355.3,286047002.6,N
1671928375.2,286046999.8,N
1671928395.0,286047001.9,N
1671928395.9,286047001.9,N
1671928415.8,286047000.3,N
1671928435.6,286047000.5,N
1671928455.4,286047001.2,N
1671928475.3,286046998.6,N
1671928495.1,286047002.0,N
1671928515.8,286047001.5,N
1671928535.7,286047000.6,N
1671928555.5,286047000.6,N
1671928575.4,286047000.8,N
1671928595.2,286047000.6,N
1671928615.1,286047000.2,N
1671928616.0,286047000.2,N
1671928635.8,286047001.0,N
1671928655.6,286047000.5,N
1671928675.5,286046998.3,N
1671928695.3,286046998.4,N
1671928715.2,286047001.0,N
1671928735.9,286046999.8,N
1671928755.7,286047002.7,N
1671928775.6,286047000.6,N
1671928795.4,286047002.5,N
1671928815.2,286047000.8,N
1671928835.1,286046998.3,N
1671928836.0,286046998.3,N
1671928855.8,286046998.6,N
1671928875.7,286047001.1,N
1671928895.5,286047000.9,N
1671928915.3,286047000.9,N
1671928935.2,286047000.7,N
1671928955.0,286047002.0,N
1671928955.9,286047002.0,N
1671928975.7,286047001.7,N
1671928995.6,286047004.2,Y
1671929015.4,286046999.7,P
1671929035.3,286047000.2,N
1671929055.1,286046999.8,N
1671929056.0,286046999.8,N
1671929075.8,286047002.6,Y
1671929095.7,286046999.7,P
1671929115.5,286047002.8,P
1671929135.4,286047001.5,N
1671929155.2,286047003.7,N
1671929175.0,286047002.2,N
1671929175.9,286047002.2,N
1671929195.8,286047000.1,N
1671929215.6,286047002.1,N
1671929235.4,286047001.3,N
1671929255.3,286047003.1,N
1671929275.1,286047001.4,N
1671929295.9,286047001.5,N
1671929315.7,286047002.3,N
1671929335.5,286047002.4,N
1671929355.4,286047000.1,N
1671929375.2,286047002.8,N
1671929395.0,286047000.2,N
1671929395.9,286047000.2,N
1671929415.8,286047001.5,N
1671929435.6,286047000.0,N
1671929455.5,286047000.8,N
1671929475.3,286047000.8,N
1671929495.1,286047001.1,N
1671929515.9,286047000.9,N
1671929535.7,286047001.4,N
1671929555.5,286047002.6,N
1671929575.4,286047002.6,N
1671929595.2,286046999.9,N
1671929615.1,286047002.2,N
1671929616.0,286047002.2,N
1671929635.8,286047002.1,N
1671929655.7,286047000.7,N
1671929675.5,286046998.3,N
1671929695.3,286047000.7,N
1671929715.2,286047000.6,N
1671929735.0,286047000.2,N
1671929735.9,286047000.2,N
1671929755.8,286047000.3,N
1671929775.6,286047000.4,N
1671929795.4,286047002.4,N
1671929815.3,286047002.3,N
1671929835.1,286047003.7,Y
1671929855.9,286047000.3,P
1671929875.7,286046998.7,P
1671929895.6,286047000.4,N
1671929915.4,286046999.8,N
1671929935.2,286047000.6,N
1671929955.1,286047001.0,N
1671929956.0,286047001.0,N
1671929975.8,286046998.2,N
1671929995.6,286046999.3,N
